IRIDIUM 4

Last updated on Wed Nov 29 2017 00:19:02 GMT+0000 (Coordinated Universal Time)

1 24796U 97020E 17332.21783815 .00000106 00000-0 30343-4 0 9991 2 24796 86.3983 249.1395 0002071 84.4112 69.0325 14.35188852 76834
UTC large
Height (km)
Speed (km/s)
/
Latitude / Longitude
Inclination (degrees)
Orbital Period (minutes)
Azimuth
Elevation
Range (km)
Doppler Factor

Next 0 passes for location: London (51.5072 / 0.1276)

Sorry there are no passes over London.